Flight Information

DEPARTURE
LAS VEGAS, NV
Elevation:
2181
Runways:
1L/19R - 8988x150 - CONC-G
8L/26R - 14515x150 - CONC-G
8R/26L - 10526x150 - CONC-E
1R/19L - 9771x150 - CONC-G
Active PE Departure:
19L - 19R - 26R
Current PE ATIS:
F
Altimeter:
30.29
Remarks:
V F R DEPARTURES CONTACT CLEARANCE DELIVERY, ADVISE ON COURSE HEADING, ALTITUDE, AND IF FLIGHT FOLLOWING IS REQUESTED.
ATIS:
132.4 702-736-0950
Clearance Delivery:
118
Ground:
121.9 (West of Rwy 01R-19L) 121.1 (East of Rwy 01R-19L)
Tower:
LAS VEGAS TOWER 119.9
DESTINATION
,
Elevation:
TPA:
1000 (est.)


6605.2 NM75° True-14° Var60° HDG

Flight Plan:
(click to file on line)

1. Type
2. Aircraft Identification
3. Aircraft Type / Special Equipment
4. True Airspeed
kts
5. Departure Airport
(ICAO code)
6. Arriving Airport
(ICAO code)
7. Cruising Altitude
ft
8. Alternate Airport
(ICAO code)
9. Route of Flight
10. Remarks


00:00:00 Departure ATIS: Destination ATIS:

Clearance Limit:
Route:
Altitude: Expect in minutes
Frequency:
Transponder: (7500 Hijack / 7600 Lost Comms / 7700 Emergency)


KLAS 211556Z 09003KT 10SM CLR 23/M03 A3029 RMK AO2 SLP238 T02331033
Time: 2021-09-21T15:56:00Z
1632241872
Winds: 90 @ 3 kts
Visibility: 10.0 sm
Clouds (AGL): CLR
Temperature: 23.3 C
Dew Point: -3.3 C
Pressure: 30.28937 in Hgbr


Notes:

Data extracted from FAA Digital Chart Supplement. Effective: 0901Z Thursday, AUG 12, 2021 to 0901Z Thursday, OCT 7, 2021
Current ATIS data is provided courtisy of PilotEdge.